STARLINK-1447

decayed
NORAD ID: 45664 Int'l Des: 2020-035 Owner: SPXS Country: US Constellation: starlink
LEOCIRCULAR
グループ

STARLINK-1447について

説明を読み込み中...

高度履歴

Altitude vs Time

uPlot chart will show altitude changes over time

軌道要素

1 45664U 20035H 21007.95333308 .09260230 12165-4 19438-2 0 9997
2 45664 52.9766 175.4583 0008431 304.5320 55.5790 16.30075266 35081
Epoch: Jan 7, 2021 • Age: 41100 hours

現在のステータス

Position data unavailable
打ち上げ日 Jun 4, 2020
運用期間 5.2 years
落下予定日 Jan 8, 2021
タイプ internet

技術仕様

分類 Payload
質量 260.00 kg
乾燥質量 248.00 kg
総質量 260.00 kg
長さ 0.20 m
直径 2.80 m
スパン 9.00 m
形状 Box + pan
製造者 SPXS
バスタイプ Starlink
フェーズステータス Reentered
所有者/国 SPXS/US

大規模コンステレーション

Loading constellations...